Regional Weather Roundup
Issued by NWS

Home | Current Version | Previous Version | Text Only | Print | Product List | Glossary Off
Versions: 1 2 3 4 5 6 7 8 9 10 11 12 13 14 15 16 17 18 19 20 21 22 23 24 25 26 27 28 29 30 31 32 33 34 35 36 37 38 39 40 41 42 43 44 45 46 47 48 49 50

951
ASUS43 KLMK 211802
RWRKY
KENTUCKY REGIONAL WEATHER ROUNDUP
NATIONAL WEATHER SERVICE LOUISVILLE KY
200 PM EDT THU MAY 21 2015

NOTE "FAIR" INDICATES FEW OR NO CLOUDS BELOW 12,000 FEET
WITH NO SIGNIFICANT WEATHER AND/OR OBSTRUCTIONS TO VISIBILITY.

KYZ001>023-026-027-061>063-070>075-211900-
WESTERN AND SOUTH CENTRAL KENTUCKY

CITY           SKY/WX    TMP DP  RH WIND       PRES   REMARKS
PADUCAH        CLOUDY    59  44  57 NW10      30.18F
HENDERSON      CLOUDY    55  45  67 NW10      30.17R
OWENSBORO      CLOUDY    54  46  74 NW9       30.17R
HOPKINSVILLE   PTSUNNY   55  46  71 N13       30.16S
BOWLING GREEN  CLOUDY    54  47  77 NW6       30.14R
GLASGOW        NOT AVBL
$$

KYZ024-025-028>034-038-045-046-053-211900-
NORTH CENTRAL KENTUCKY

CITY           SKY/WX    TMP DP  RH WIND       PRES   REMARKS
LOUISVILLE/SDF CLOUDY    57  45  64 N12       30.10R
LOUISVILLE/LOU CLOUDY    56  44  64 NW9       30.10R
FORT KNOX      CLOUDY    53  46  76 W12       30.09R
$$

KYZ035>037-039>044-047>052-055>060-089>105-211900-
NORTHEAST KENTUCKY

CITY           SKY/WX    TMP DP  RH WIND       PRES   REMARKS
LEXINGTON      CLOUDY    55  46  71 NW9       30.06R
COVINGTON      CLOUDY    54  43  66 NW10      30.06S
FRANKFORT      CLOUDY    54  45  71 NW10      30.06S
$$

KYZ054-064>069-076>088-106>120-211900-
SOUTHEAST KENTUCKY

CITY           SKY/WX    TMP DP  RH WIND       PRES   REMARKS
JACKSON        CLOUDY    52  50  93 NW6       30.02S FOG
LONDON         CLOUDY    57  47  69 NW8       30.04F
SOMERSET       NOT AVBL
MIDDLESBORO    NOT AVBL
MONTICELLO     CLOUDY    55  53  93 W9        30.11R FOG
$$




USA.gov is the U.S. government's official web portal to all federal, state and local government web resources and services.